Skip Page Navigation
NASA JPL Caltech
NASA Logo - Jet Propulsion Laboratory + View the NASA Portal
+ Center for Near-Earth Object Studies
JPL Home Earth Solar System Stars & Galaxies Technology
JPL Solar System Dynamics
BODIES ORBITS EPHEMERIDES TOOLS PHYSICAL DATA DISCOVERY FAQ SITE MAP
IMPORTANT: The SSD Announcement email list is now available. Major changes are coming in the near future, including possible hostname and/or URL changes. To be notified of such changes, subscribe to this email list.

Please visit this page for more details.


JPL Small-Body Database Browser
Search: [ help ]  
344567 (2002 XB46)
Classification: Main-belt Asteroid          SPK-ID: 2344567
Ephemeris | Orbit Diagram | Orbital Elements | Mission Design | Physical Parameters | Discovery Circumstances | Close-Approach Data ]

[ show orbit diagram ]
Orbital Elements at Epoch 2458600.5 (2019-Apr-27.0) TDB
Reference: JPL 18 (heliocentric ecliptic J2000)
 Element Value Uncertainty (1-sigma)   Units 
e .3453047711812517 6.8468e-08  
a 3.065560819132104 1.9391e-08 au
q 2.007008041939482 2.0535e-07 au
i 3.732964835098505 6.8761e-06 deg
node 269.7431655274887 8.7743e-05 deg
peri 128.7799099228158 8.8549e-05 deg
M 40.31158892730649 7.5425e-06 deg
tp 2458380.971581916883
(2018-Sep-19.47158192)
4.0762e-05 TDB
period 1960.484134039879
5.37
1.8602e-05
5.093e-08
d
yr
n .1836281119287431 1.7423e-09 deg/d
Q 4.124113596324726 2.6087e-08 au
  Orbit Determination Parameters
   # obs. used (total)      491  
   data-arc span      6027 days (16.50 yr)  
   first obs. used      2002-09-05  
   last obs. used      2019-03-07  
   planetary ephem.      DE431  
   SB-pert. ephem.      SB431-N16  
   condition code      0  
   norm. resid. RMS      .50295  
   source      ORB  
   producer      Otto Matic  
   solution date      2019-Jul-13 17:15:46  

Additional Information
 Earth MOID = 1.01682 au 
 Jupiter MOID = 1.34181 au 
 T_jup = 3.135 
[ show covariance matrix ]

Ephemeris | Orbit Diagram | Orbital Elements | Mission Design | Physical Parameters | Discovery Circumstances | Close-Approach Data ]

Physical Parameter Table
Parameter Symbol Value Units Sigma Reference Notes
absolute magnitude H 15.4   n/a MPO471580  

344567 (2002 XB46)          Discovered 2002-Dec-10 by LINEAR at Socorro
Reference: 20121128/Numbers.arcLast Updated: 2012-12-03

[ hide close-approach data ]
Close-Approach Data   ...sorted by Date/Time (TDB)
Date/Time (TDB) Time Uncertainty
(days_HH:MM)
Body Nominal Distance (au) Minimum Distance (au) Maximum Distance (au) V-relative (km/s) V-infinity (km/s) JD (TDB) Time Uncertainty (minutes) Semi-major axis (km) Semi-minor axis (km) range-LOV angle (deg) N-sigma BP Orbit Ref. Reference Modified
1935-Jul-22 16:38 00:03 Jupiter 1.40903472616973 1.40903304480705 1.40903640764667 0.899518947355362 n/a 2428006.193321545 2.76446409531066 732.140985359066 41.3508593120876 -84.2732434239092 5070468.53912929 F 18 CATAB v2.0e-lin.ifort 2019-Jul-13 17:15:50 2019-Jul-13 17:15
1945-Jan-23 04:24 00:03 Jupiter 1.9369796039251 1.93697720288474 1.93698200561055 1.19440684861202 0.742985189806199 2431478.683138634 2.84996022677023 3517.30558045727 177.183609426438 -44.5475206677511 3389521.70300617 T 18 CATAB v2.0e-lin.ifort 2019-Jul-13 17:15:50 2019-Jul-13 17:15
1994-Sep-05 05:55 < 00:01 Jupiter 1.35312544036357 1.35312466982448 1.35312621091372 0.934449344262278 n/a 2449600.746423840 0.757460048631093 322.342907509883 30.6701353760533 -85.8634847251437 6580683.4702111 F 18 CATAB v2.0e-lin.ifort 2019-Jul-13 17:15:50 2019-Jul-13 17:15
2053-Nov-18 17:30 00:01 Jupiter 1.33309317317857 1.3330925016576 1.33309384469968 0.970889583589372 n/a 2471225.229369493 1.255546091051 257.281439771767 33.355719820266 -89.3371227901212 5976278.70140776 F 18 CATAB v2.0e-lin.ifort 2019-Jul-13 17:15:50 2019-Jul-13 17:15
2113-Feb-09 19:44 00:04 Jupiter 1.33067380831091 1.33067275379395 1.33067486287327 1.00552917495493 n/a 2492857.321914455 3.61636188222072 544.837582704876 36.77869982027 86.0353960392185 5397691.3091722 F 18 CATAB v2.0e-lin.ifort 2019-Jul-13 17:15:50 2019-Jul-13 17:15
2172-Apr-18 17:30 00:07 Jupiter 1.35059915546101 1.35059606552165 1.35060224584869 1.02229436090251 n/a 2514475.228953581 7.35705054778794 1267.93526724104 34.2455063398436 83.1924129854064 5856290.5483435 F 18 CATAB v2.0e-lin.ifort 2019-Jul-13 17:15:50 2019-Jul-13 17:15

Alternate Designations
 2002 XB46 = 2007 RH54 
Ephemeris | Orbit Diagram | Orbital Elements | Mission Design | Physical Parameters | Discovery Circumstances | Close-Approach Data ]
ABOUT SSD CREDITS/AWARDS PRIVACY/COPYRIGHT GLOSSARY LINKS
FirstGov 2020-Jan-23 05:23 UT
(server date/time)  
NASA Home Page
Site Manager:   Ryan S. Park
Webmaster  Alan B. Chamberlin